New Roads False River Regiona, LA

2:33 PM CST on November 19, 2019 (GMT -0600)
False River

Weather History for KHZR - August, 2019

Change the Weather History Date:

Saturday, August 24, 2019

  Actual Average (WUND) Record (WUND)
Temperature  
Mean Temperature 81 °F -  
Max Temperature 89 °F - - (-1)
Min Temperature 73 °F - - (-1)
Cooling Degree Days 16    
Growing Degree Days 31 (Base 50)    
Moisture  
Dew Point 74 °F    
Average Humidity 89    
Maximum Humidity 100    
Minimum Humidity 59    
Precipitation  
Precipitation 0.50 in - - ()
Sea Level Pressure  
Sea Level Pressure 29.98 in    
Wind  
Wind Speed 2 mph ()    
Max Wind Speed 16 mph    
Max Gust Speed 24 mph    
Visibility 9.5 miles    
Events Rain , Thunderstorm    
Averages and records for this station are not official NWS values.
T = Trace of Precipitation, MM = Missing Value Source: Averaged Metar Reports

Daily Weather History Graph

Daily Weather History Graph

Search for Another Location

Airport or City:

Astronomy

Aug. 24, 2019 Rise Set
Actual Time 6:37 AM CDT 7:38 PM CDT
Civil Twilight 6:12 AM CDT 8:03 PM CDT
Nautical Twilight 5:43 AM CDT 8:32 PM CDT
Astronomical Twilight 5:12 AM CDT 9:03 PM CDT
Moon 12:39 AM CDT (8/24) 2:43 PM CDT (8/24)
Length of Visible Light 13h 50m
Length of Day
13h 00m
Last Quarter, 39% of the Moon is Illuminated
Aug 24
Last Quarter
Aug 30
New
Sep 5
First Quarter
Sep 13
Full
Sep 21
Last Quarter

Hourly Weather History & Observations

Time (CDT) Temp. Heat Index Dew Point Humidity Pressure Visibility Wind Dir Wind Speed Gust Speed Precip Events Conditions
12:16 AM 73.4 °F - 73.4 °F 100% 29.97 in 10.0 mi ESE 3.5 mph - N/A   Clear
12:36 AM 73.4 °F - 73.4 °F 100% 29.97 in 10.0 mi Calm Calm - N/A   Clear
12:56 AM 73.4 °F - 73.4 °F 100% 29.97 in 10.0 mi Calm Calm - N/A   Clear
1:18 AM 73.4 °F - 73.4 °F 100% 29.97 in 10.0 mi Calm Calm - N/A   Clear
1:36 AM 73.4 °F - 71.6 °F 94% 29.98 in 10.0 mi Calm Calm - N/A   Clear
2:16 AM 73.4 °F - 73.4 °F 100% 29.97 in 10.0 mi Calm Calm - N/A   Clear
2:36 AM 73.4 °F - 71.6 °F 94% 29.97 in 10.0 mi NE 3.5 mph - N/A   Clear
3:18 AM 73.4 °F - 73.4 °F 100% 29.98 in 10.0 mi Calm Calm - N/A   Clear
3:36 AM 73.4 °F - 73.4 °F 100% 29.99 in 10.0 mi Calm Calm - N/A   Scattered Clouds
3:58 AM 73.4 °F - 73.4 °F 100% 29.99 in 10.0 mi Calm Calm - N/A   Overcast
4:16 AM 73.4 °F - 73.4 °F 100% 29.99 in 10.0 mi Calm Calm - N/A   Overcast
4:36 AM 73.4 °F - 73.4 °F 100% 29.99 in 10.0 mi Calm Calm - N/A   Scattered Clouds
4:56 AM 73.4 °F - 73.4 °F 100% 30.00 in 10.0 mi Calm Calm - N/A   Scattered Clouds
5:36 AM 73.4 °F - 73.4 °F 100% 29.99 in 10.0 mi Calm Calm - N/A   Clear
5:56 AM 75.2 °F - 73.4 °F 94% 29.99 in 10.0 mi Calm Calm - N/A   Clear
6:16 AM 75.2 °F - 75.2 °F 100% 29.99 in 10.0 mi Calm Calm - N/A   Clear
6:37 AM 75.2 °F - 75.2 °F 100% 30.00 in 10.0 mi Calm Calm - N/A   Clear
6:56 AM 75.2 °F - 75.2 °F 100% 30.01 in 10.0 mi Calm Calm - N/A   Scattered Clouds
7:16 AM 75.2 °F - 75.2 °F 100% 30.01 in 10.0 mi Calm Calm - N/A   Mostly Cloudy
7:56 AM 75.2 °F - 75.2 °F 100% 30.01 in 10.0 mi Calm Calm - N/A   Overcast
8:18 AM 75.2 °F - 73.4 °F 94% 30.02 in 0.8 mi SSW 8.1 mph 20.7 mph 0.12 in Rain Heavy Rain
8:36 AM 75.2 °F - 73.4 °F 94% 30.02 in 5.0 mi South 3.5 mph - 0.22 in Rain Light Rain
8:56 AM 75.2 °F - 73.4 °F 94% 30.02 in 10.0 mi South 3.5 mph - 0.22 in   Scattered Clouds
9:36 AM 77.0 °F - 73.4 °F 89% 30.01 in 10.0 mi Calm Calm - N/A   Clear
9:56 AM 78.8 °F - 75.2 °F 89% 30.01 in 10.0 mi Calm Calm - N/A   Clear
10:16 AM 78.8 °F - 73.4 °F 83% 30.02 in 10.0 mi Calm Calm - N/A   Clear
10:36 AM 80.6 °F 85.4 °F 73.4 °F 79% 30.02 in 10.0 mi South 4.6 mph - N/A   Clear
10:59 AM 82.4 °F 88.2 °F 73.4 °F 74% 30.02 in 10.0 mi SE 4.6 mph - N/A   Clear
11:16 AM 82.4 °F 88.2 °F 73.4 °F 74% 30.01 in 10.0 mi SSE 6.9 mph - N/A   Clear
11:58 AM 86.0 °F 93.4 °F 73.4 °F 66% 30.00 in 10.0 mi SSE 10.4 mph - N/A   Clear
12:16 PM 86.0 °F 93.4 °F 73.4 °F 66% 29.99 in 10.0 mi South 6.9 mph - N/A   Clear
12:36 PM 87.8 °F 97.6 °F 75.2 °F 66% 29.98 in 10.0 mi South 8.1 mph - N/A   Scattered Clouds
12:59 PM 87.8 °F 95.6 °F 73.4 °F 62% 29.98 in 10.0 mi South 8.1 mph - N/A   Mostly Cloudy
1:16 PM 87.8 °F 95.6 °F 73.4 °F 62% 29.98 in 10.0 mi SSE 6.9 mph - N/A   Scattered Clouds
1:37 PM 87.8 °F 95.6 °F 73.4 °F 62% 29.97 in 10.0 mi SSW 9.2 mph - N/A   Mostly Cloudy
1:58 PM 89.6 °F 98.2 °F 73.4 °F 59% 29.97 in 10.0 mi South 11.5 mph - 0.01 in   Mostly Cloudy
2:16 PM 87.8 °F 97.6 °F 75.2 °F 66% 29.97 in 10.0 mi SSW 11.5 mph - N/A   Mostly Cloudy
2:38 PM 87.8 °F 97.6 °F 75.2 °F 66% 29.98 in 10.0 mi SSE 16.1 mph 24.2 mph N/A   Mostly Cloudy
2:56 PM 75.2 °F - 73.4 °F 94% 29.99 in 2.0 mi ESE 10.4 mph - 0.17 in Rain , Thunderstorm Heavy Thunderstorms and Rain
3:16 PM 75.2 °F - 73.4 °F 94% 29.97 in 7.0 mi East 6.9 mph - 0.02 in Rain Rain
3:36 PM 75.2 °F - 73.4 °F 94% 29.96 in 10.0 mi East 8.1 mph - 0.03 in Rain Light Rain
3:58 PM 78.8 °F - 75.2 °F 89% 29.95 in 10.0 mi SE 5.8 mph - 0.03 in   Scattered Clouds
4:18 PM 78.8 °F - 75.2 °F 89% 29.95 in 10.0 mi SSE 4.6 mph - N/A   Clear
4:36 PM 78.8 °F - 75.2 °F 89% 29.95 in 10.0 mi ESE 6.9 mph - N/A   Scattered Clouds
4:56 PM 80.6 °F 86.2 °F 75.2 °F 84% 29.94 in 10.0 mi ESE 4.6 mph - N/A   Scattered Clouds
5:18 PM 80.6 °F 86.2 °F 75.2 °F 84% 29.95 in 10.0 mi ESE 3.5 mph - N/A   Scattered Clouds
5:56 PM 80.6 °F 86.2 °F 75.2 °F 84% 29.94 in 10.0 mi East 3.5 mph - N/A   Clear
6:16 PM 80.6 °F 86.2 °F 75.2 °F 84% 29.94 in 10.0 mi ENE 4.6 mph - N/A   Scattered Clouds
6:38 PM 78.8 °F - 75.2 °F 89% 29.93 in 10.0 mi East 3.5 mph - N/A   Clear
6:56 PM 78.8 °F - 75.2 °F 89% 29.93 in 10.0 mi Calm Calm - N/A   Clear
7:18 PM 78.8 °F - 75.2 °F 89% 29.94 in 10.0 mi East 3.5 mph - N/A   Clear
7:36 PM 78.8 °F - 75.2 °F 89% 29.94 in 10.0 mi Calm Calm - N/A   Clear
7:59 PM 77.0 °F - 75.2 °F 94% 29.94 in 10.0 mi Calm Calm - N/A   Clear
8:16 PM 77.0 °F - 75.2 °F 94% 29.96 in 10.0 mi NE 3.5 mph - N/A   Clear
8:56 PM 75.2 °F - 75.2 °F 100% 29.96 in 10.0 mi East 3.5 mph - N/A   Scattered Clouds
9:36 PM 75.2 °F - 75.2 °F 100% 29.97 in 10.0 mi Calm Calm - N/A   Mostly Cloudy
9:57 PM 75.2 °F - 75.2 °F 100% 29.98 in 10.0 mi Calm Calm - N/A   Overcast
10:36 PM 75.2 °F - 75.2 °F 100% 29.99 in 10.0 mi SSE 5.8 mph - N/A   Overcast
10:56 PM 75.2 °F - 73.4 °F 94% 29.98 in 7.0 mi Calm Calm - 0.07 in Rain Light Rain
11:36 PM 75.2 °F - 73.4 °F 94% 29.96 in 10.0 mi Calm Calm - N/A   Overcast
11:56 PM 75.2 °F - 73.4 °F 94% 29.96 in 10.0 mi Calm Calm - N/A   Overcast